Location: Okie-Tex Star Party
(36.8978°N, 102.9520°W)
Time: 21:30:18
(UTC-05:00)

Daily predictions for brighter satellites

Satellite Brightness Start Highest point End
(mag) Time Altitude Azimuth Time Altitude Azimuth Time Altitude Azimuth
ALOS 2.6 21:39:56 10° S 21:44:35 71° WSW 21:49:15 10° NNW
Tiangong 1 1.0 21:42:28 10° WSW 21:45:35 88° NNW 21:48:42 10° ENE
OAO 2 Rocket 3.8 21:40:59 10° SW 21:46:01 46° SSE 21:51:06 10° E
ERS-1 Rocket 3.3 21:41:17 10° SSE 21:46:08 53° ENE 21:51:03 10° N
Cosmos 1500 Rocket 3.6 21:42:52 10° S 21:47:14 88° W 21:51:40 10° N
Cosmos 371 Rocket 4.5 21:43:08 10° NNW 21:47:41 43° WSW 21:52:12 10° S
Envisat 3.8 21:46:18 10° SE 21:50:52 35° ENE 21:55:26 10° N
Cosmos 2151 3.2 21:53:56 10° SSE 21:57:59 50° E 22:02:03 10° NNE
H-2A R/B 3.9 21:57:47 10° S 22:01:26 43° W 22:05:04 10° NNW
Delta 2 Rocket 2.9 21:57:56 10° W 22:01:46 74° S 22:05:15 10° E
Hubble Space Telescope 2.6 21:59:34 10° SSW 22:01:54 15° SSE 22:03:43 12° SE
Cosmos 2058 3.7 21:58:38 10° SSE 22:02:16 32° E 22:05:55 10° NNE
Cosmos 2333 Rocket 4.2 21:59:46 10° NNE 22:03:03 15° NE 22:06:19 10° E
NOSS 3-1 (C) 3.4 21:57:33 10° SSW 22:03:14 64° ESE 22:09:29 10° NE
Cosmos 2112 Rocket 4.1 22:04:01 10° N 22:09:14 62° ENE 22:14:09 12° SSE
Cosmos 2297 Rocket 4.0 22:07:58 11° ESE 22:09:20 11° E 22:11:04 10° ENE
Cosmos 1437 Rocket 3.4 22:09:30 10° NNW 22:13:15 54° W 22:17:02 10° S
Cosmos 2219 Rocket 3.6 22:10:33 10° N 22:14:58 23° ENE 22:18:54 12° ESE
COSMOS 2428 3.2 22:10:03 10° N 22:15:31 47° ENE 22:20:00 15° SE
deb Chang Zheng 4 3.6 22:11:29 10° NNE 22:15:50 90° ESE 22:20:11 10° SSW
Cosmos 1726 3.6 22:13:52 10° NNE 22:16:56 23° ENE 22:18:49 16° ESE
Nimbus 7 Rocket 4.4 22:13:12 10° NNE 22:19:02 72° ESE 22:24:54 10° S
PSLV R/B 4.1 22:17:19 18° SE 22:19:03 31° ENE 22:21:48 10° N
Cosmos 2298 Rocket 4.1 22:14:41 10° S 22:19:51 55° ESE 22:25:03 10° NNE
Sich 1 3.9 22:17:18 14° SSE 22:20:31 32° E 22:24:26 10° NNE
Cosmos 304 Rocket 3.9 22:15:56 10° NNW 22:20:45 78° WSW 22:25:23 11° SSE
Cosmos 1939 Rocket 2.8 22:19:34 11° SSE 22:23:24 89° WSW 22:27:18 10° NNW
Cosmos 1151 Rocket 3.5 22:22:19 10° NNW 22:26:36 62° W 22:30:53 10° S
Cosmos 1633 Rocket 3.7 22:24:02 16° SSE 22:26:59 35° E 22:31:00 10° NNE
Meteor 1-4 Rocket 4.0 22:26:58 10° NNE 22:29:58 23° ENE 22:31:14 19° ESE
CZ-4B R/B 4.0 22:26:25 10° NNE 22:31:22 42° E 22:35:20 15° SSE
SPOT 5 2.8 22:30:39 17° SSE 22:34:11 71° ENE 22:39:01 10° N
SL-23 DEB 3.8 22:30:08 10° NW 22:35:12 81° NE 22:37:10 25° SE
DELTA 2 R/B (1) 4.0 22:31:13 10° WNW 22:36:34 50° SSW 22:40:00 21° SE
USA 245 3.9 22:37:00 19° ENE 22:37:00 19° ENE 22:38:37 10° NNE
Cosmos 2237 4.2 22:31:20 10° NNW 22:37:06 77° ENE 22:41:10 20° SSE
Cosmos 2219 4.0 22:37:39 10° SW 22:43:15 54° WNW 22:48:54 10° NNE
Cosmos 1805 Rocket 3.6 22:39:31 10° S 22:43:58 81° W 22:48:25 10° N
Cosmos 292 Rocket 4.4 22:39:47 10° N 22:44:18 41° ENE 22:46:35 25° ESE
Cosmos 1680 Rocket 4.2 22:39:54 10° NNW 22:44:58 50° WSW 22:49:39 12° S
MetOp-B 4.1 22:44:23 20° SSE 22:48:10 77° ENE 22:53:32 10° N
H-2A R/B 3.6 22:46:30 17° ESE 22:48:55 23° ENE 22:53:08 10° NNE
Cosmos 2237 Rocket 3.4 22:44:49 10° N 22:49:47 30° ENE 22:52:39 20° ESE
Cosmos 1271 Rocket 3.3 22:47:27 10° N 22:51:06 40° ENE 22:52:15 31° ESE
Cosmos 2082 4.1 22:49:35 19° SSE 22:53:23 43° ESE 22:58:46 10° NE
Cosmos 2333 4.2 22:47:48 10° NNW 22:53:34 78° ENE 22:56:57 26° SSE
Cosmos 220 Rocket 3.9 22:50:21 15° S 22:53:52 67° ESE 22:58:16 10° NNE
Cosmos 1898 Rocket 3.5 22:49:17 10° SSW 22:54:27 81° WNW 22:59:41 10° NNE
Iridium 2 4.4 22:54:33 32° ESE 22:55:17 36° E 22:58:50 10° NNE
Cosmos 1626 3.5 22:56:29 24° E 22:56:29 24° E 22:59:25 10° NE
Cosmos 2360 Rocket 3.6 22:54:22 10° NW 22:59:22 33° WSW 23:04:20 10° SSW
Cosmos 1703 3.3 22:59:02 36° SSE 23:00:23 58° E 23:04:14 10° NNE
H-2A R/B 3.6 22:56:36 10° SSW 23:00:40 33° W 23:04:46 10° NNW
OTV 4 0.2 22:58:17 10° WSW 23:01:13 69° SSE 23:01:14 69° SSE
SPOT 1/Viking Rocket 3.5 22:58:30 28° SSE 23:01:15 71° ENE 23:06:24 10° N
SL-14 R/B 3.6 22:58:26 16° SSW 23:01:32 67° W 23:05:31 10° N
NOAA 11 4.4 22:59:50 28° SE 23:02:34 58° ENE 23:07:55 10° N
YAOGAN 6 2.5 23:02:03 37° S 23:03:24 83° WSW 23:07:01 10° NNW
Cosmos 1707 Rocket 3.9 23:01:02 10° NNW 23:05:22 64° W 23:07:55 24° S
Cosmos 1666 Rocket 4.0 23:03:02 13° SSW 23:06:54 60° W 23:11:17 10° N
NOSS 3-1 (A) 4.1 23:02:43 10° SW 23:08:28 57° NW 23:14:49 10° NNE
Terra 2.9 23:09:58 26° E 23:11:12 29° ENE 23:15:18 10° N
SL-08 RB Rocket 3.7 23:11:03 39° SE 23:12:30 62° ENE 23:16:57 10° N
Cosmos 1241 Rocket 4.3 23:08:59 10° SSW 23:15:08 82° ESE 23:21:25 10° NNE
Cosmos 1470 Rocket 3.4 23:19:29 47° SSE 23:20:38 72° E 23:24:56 10° NNE
ERBS 3.4 23:17:20 10° WSW 23:20:43 46° NW 23:24:05 10° NNE
Cosmos 1933 Rocket 3.5 23:20:23 45° SSE 23:21:37 71° E 23:26:05 10° NNE
Tiangong 1 3.0 23:19:39 10° WNW 23:22:25 29° N 23:24:22 15° NE
Cosmos 1300 4.2 23:19:28 10° NNW 23:22:56 32° W 23:24:50 20° SW
Cosmos 2227 Rocket 2.1 23:21:20 16° SSW 23:25:55 88° ESE 23:31:37 10° NNE
Nadezhda 1 Rocket 3.9 23:23:32 10° N 23:29:38 72° E 23:32:02 39° SSE
ATLAS 2AS CENTAUR R/B 2.9 23:23:03 10° SSW 23:30:24 80° ESE 23:38:25 10° NE
OAO 2 Rocket 3.3 23:25:22 10° W 23:30:41 73° S 23:32:37 39° ESE
NOSS 0 Rocket 3.9 23:29:00 10° NNW 23:35:11 88° WSW 23:37:28 42° SSE
Lacrosse 4 Rocket 3.0 23:35:40 10° N 23:39:25 26° ENE 23:40:03 25° ENE
Cosmos 1745 Rocket 4.2 23:36:47 22° SSW 23:40:53 69° W 23:47:03 10° N
ATLAS 3B R/B 3.3 23:37:12 10° NNW 23:43:51 44° NE 23:46:35 30° E
SL-16 R/B 3.1 23:39:38 10° N 23:44:53 37° ENE 23:46:17 32° E
Cosmos 1455 2.1 23:41:29 10° N 23:45:10 83° N 23:45:10 83° N
BREEZE-M DEB (TANK) 4.2 23:43:57 10° NNW 23:45:52 23° NE 23:45:52 23° NE
DMSP B5D2-2 3.9 23:41:24 10° NNE 23:46:38 72° ESE 23:47:41 55° SSE
ARGOS 3.7 23:45:02 32° SSW 23:47:12 51° W 23:52:27 10° NNW
Cosmos 2333 Rocket 2.2 23:42:12 10° NNW 23:47:58 79° WSW 23:49:33 50° S
Cosmos 1709 Rocket 4.0 23:47:29 47° SE 23:48:55 60° E 23:54:54 10° NNE
Cosmos 1933 4.3 23:48:06 10° N 23:51:19 36° ENE 23:51:19 36° ENE
Cosmos 1726 4.5 23:49:30 10° NW 23:52:07 18° W 23:53:31 15° WSW
Cosmos 2297 Rocket 2.2 23:49:42 30° SSW 23:52:34 80° WNW 23:58:14 10° NNE
